Flag for U.S.A. Weather past 2 weeks in Phoenix, Arizona, U.S.A.

Now
98 °F

Passing clouds.


Feels Like: 93 °F
Forecast: 70 / 99 °F
Wind: 7 mph from West

Location: Phoenix Sky Harbor International Airport

Current Time: May 28, 2015 at 5:26:00 PM

Latest Report: May 28, 2015 at 4:51 PM


Visibility: 10 mi

Pressure: 29.75 "Hg

Humidity: 9%

Dew point: 29 °F

Location of PhoenixLocation

Historic Weather in Phoenix — Graph

°F

Phoenix temperature yesterday

Maximum temperature yesterday: 96 °F (at 1:51 PM)
Minimum temperature yesterday: 74 °F (at 6:51 AM)
Average temperature yesterday: 85 °F

Past Weeks' High & Low Weather Summary

 TemperatureHumidityPressure
High97 °F (May 28, 1:51 PM)90% (May 15, 3:56 PM)29.96 "Hg (May 15, 3:56 PM)
Low57 °F (May 15, 11:51 PM)7% (May 18, 6:51 PM)29.67 "Hg (May 14, 3:51 PM)
Average77 °F28%29.82 "Hg
* Reported May 13 2:51 PM — May 28 2:51 PM, Phoenix, Weather by CustomWeather, © 2015

Note: Actual official high and low records may vary slightly from our data, if they occured in-between our weather recording intervals... More about our weather records

Advertising

Phoenix weather history for previous 24 hours

 ConditionsComfort  
Time TempWeatherWind HumidityBarometerVisibility
2:51 PM
Thu, May 28
96 °FPassing clouds.6 mph9%29.78 "Hg10 mi
1:51 PM97 °FPassing clouds.8 mph10%29.80 "Hg10 mi
12:51 PM95 °FSunny.5 mph10%29.83 "Hg10 mi
11:51 AM91 °FSunny.3 mph12%29.85 "Hg10 mi
10:51 AM89 °FSunny.No wind14%29.87 "Hg10 mi
9:51 AM86 °FSunny.5 mph17%29.87 "Hg10 mi
8:51 AM83 °FSunny.5 mph20%29.87 "Hg10 mi
7:51 AM78 °FSunny.7 mph23%29.87 "Hg10 mi
6:51 AM75 °FSunny.10 mph25%29.86 "Hg10 mi
5:51 AM71 °FSunny.5 mph30%29.84 "Hg10 mi
4:51 AM73 °FClear.5 mph29%29.83 "Hg10 mi
3:51 AM73 °FClear.3 mph30%29.81 "Hg10 mi
2:51 AM76 °FClear.6 mph29%29.81 "Hg10 mi
1:51 AM78 °FClear.3 mph22%29.81 "Hg10 mi
12:51 AM80 °FClear.6 mph22%29.80 "Hg10 mi
11:51 PM
Wed, May 27
80 °FPassing clouds.3 mph22%29.81 "Hg10 mi
10:51 PM82 °FPassing clouds.5 mph20%29.80 "Hg10 mi
9:51 PM83 °FPassing clouds.6 mph17%29.79 "Hg10 mi
8:51 PM90 °FPassing clouds.6 mph11%29.77 "Hg10 mi
7:51 PM91 °FPartly cloudy.9 mph10%29.75 "Hg10 mi
6:51 PM92 °FBroken clouds.12 mph13%29.74 "Hg10 mi
5:51 PM93 °FBroken clouds.13 mph12%29.74 "Hg10 mi
Weather by CustomWeather, © 2015

See weather overviewHow to use our weather pages